[[[{"header":{"parameterUnit":"kt","parameterCategory":2,"dx":1,"dy":1,"la1":30.253999710083008,"la2":30.299108505249023,"lo1":-89.0895004272461,"lo2":-89.04439544677734,"nx":28,"ny":28,"refTime":"2022-10-16T21:00:00:Z","depth":0,"parameterNumber":1,"parameterNumberName":"U-component_of_WINDS"},"data":[2.1494,2.1548,2.1562,2.1631,2.1655,2.1705,2.1727,2.1758,2.1787,2.1849,2.1888,2.1909,2.1944,2.1995,2.2038,2.2047,2.2065,2.2074,2.2082,2.2027,2.202,2.2014,2.2001,2.2077,2.2078,2.2138,2.2138,2.2139,2.1454,2.1478,2.1519,2.1567,2.1602,2.1602,2.1641,2.167,2.1715,2.1751,2.1789,2.1846,2.1893,2.1925,2.1973,2.2001,2.2004,2.2013,2.2011,2.2016,2.1958,2.1944,2.2009,2.2009,2.2009,2.2009,2.2009,2.2009,2.1386,2.1417,2.1454,2.1498,2.1526,2.1559,2.1592,2.1616,2.1656,2.1706,2.1716,2.1767,2.1806,2.1871,2.1896,2.1938,2.1931,2.1945,2.1949,2.1952,2.1954,2.1867,2.1947,2.1947,2.1947,2.1947,2.1947,0,2.134,2.1349,2.1388,2.1431,2.1464,2.1499,2.1534,2.1555,2.158,2.1612,2.1661,2.1691,2.1751,2.1799,2.1847,2.1871,2.1875,2.1876,2.1887,2.1882,2.1873,2.1879,2.1783,2.1874,2.1873,2.1873,2.1873,2.1872,2.1272,2.1307,2.1352,2.1377,2.1399,2.1441,2.1468,2.1487,2.1516,2.1562,2.159,2.1638,2.1677,2.1753,2.1781,2.1827,2.1829,2.1862,2.1836,2.1831,2.183,2.1828,2.1832,2.1866,2.1867,2.1868,2.1868,0,2.1233,2.1254,2.1313,2.1354,2.1365,2.1401,2.1437,2.147,2.1489,2.1537,2.155,2.1581,2.1628,2.1651,2.171,2.1721,2.1783,2.1784,2.177,2.1772,2.1804,2.1801,2.1904,2.1919,2.184,2.1841,2.1841,0,2.1183,2.1228,2.1258,2.1291,2.1342,2.1359,2.141,2.1431,2.1464,2.1502,2.1508,2.1544,2.1568,2.1607,2.1623,2.1679,2.1689,2.1701,2.1705,2.17,2.1699,2.1716,2.1713,2.1711,2.171,2.171,2.1709,0,2.1119,2.1187,2.1241,2.126,2.1308,2.1333,2.1354,2.139,2.1417,2.1455,2.1473,2.1517,2.1542,2.1576,2.1596,2.1577,2.1664,2.1642,2.1676,2.1675,2.1693,2.1692,2.1777,2.1709,2.1709,2.1708,2.1708,0,2.1082,2.1119,2.1193,2.1233,2.125,2.1285,2.1329,2.1364,2.1402,2.1413,2.1444,2.1451,2.15,2.1477,2.1546,2.1516,2.154,2.1556,2.1559,2.1564,2.1538,2.1583,2.1662,2.1672,2.157,2.1569,2.1568,0,2.1003,2.1083,2.1097,2.1167,2.1207,2.1211,2.1251,2.1283,2.1301,2.1339,2.136,2.1402,2.139,2.1406,2.1438,2.1461,2.15,2.1457,2.1513,2.1514,2.1502,2.1575,2.1581,2.1643,2.1554,2.1555,2.1556,0,2.0944,2.1,2.1012,2.1034,2.1078,2.1111,2.1157,2.1202,2.1226,2.1261,2.13,2.1361,2.1354,2.1381,2.1391,2.1422,2.1474,2.1411,2.1412,2.1422,2.1548,2.1553,2.1564,2.1475,2.1476,2.1478,2.1545,0,2.0884,2.0926,2.0957,2.1005,2.1034,2.1078,2.11,2.1128,2.1134,2.1152,2.121,2.1242,2.1289,2.1306,2.1312,2.1376,2.1369,2.1361,2.134,2.1387,2.141,2.1419,2.1304,2.1304,2.1303,2.1303,0,0,2.0804,2.0864,2.0877,2.0921,2.0946,2.0949,2.0994,2.1019,2.1069,2.1087,2.1076,2.1165,2.1191,2.1259,2.1276,2.1294,2.1308,2.129,2.1364,2.1371,2.1377,2.1401,2.1411,2.1302,2.1302,2.1302,2.1302,0,2.0786,2.081,2.0855,2.0881,2.092,2.0936,2.0947,2.0986,2.0999,2.1055,2.1057,2.1094,2.1164,2.1192,2.1216,2.1283,2.1282,2.1295,2.1324,2.136,2.1367,2.1373,2.1398,2.1407,2.1301,2.1301,2.1301,0,2.0732,2.076,2.0783,2.0839,2.0864,2.0905,2.0888,2.0931,2.0962,2.0962,2.1018,2.1038,2.1077,2.1138,2.1166,2.1157,2.1258,2.1229,2.1232,2.1236,2.1272,2.128,2.1288,2.1186,2.1186,2.1185,0,0,2.0714,2.0752,2.0787,2.0836,2.0852,2.0877,2.09,2.0908,2.0942,2.0956,2.0982,2.1015,2.1057,2.1083,2.1123,2.1186,2.1196,2.1214,2.122,2.1224,2.123,2.1267,2.1275,2.1183,2.1183,2.1183,0,0,2.0705,2.0748,2.0747,2.0806,2.0838,2.0877,2.0906,2.0907,2.0944,2.0942,2.0958,2.0968,2.1025,2.1045,2.1018,2.1116,2.1095,2.1102,2.11,2.1108,2.1113,2.1107,2.1005,0,0,0,0,0,2.0697,2.0742,2.0741,2.0754,2.0824,2.0877,2.0886,2.09,2.0885,2.0908,2.0931,2.0928,2.1034,2.101,2.1023,2.1054,2.1159,2.1163,2.1167,2.1181,2.1188,2.1194,0,0,0,0,0,0,2.0702,2.0718,2.074,2.078,2.0796,2.0876,2.0853,2.0858,2.0883,2.0881,2.0924,2.0929,2.0943,2.1004,2.1016,2.1044,2.1001,2.1161,2.1164,2.1168,2.1183,2.1189,2.1194,0,0,0,0,0,2.0706,2.0719,2.0828,2.078,2.0794,2.0823,2.0851,2.0855,2.0875,2.0909,2.0914,2.0883,2.0943,2.0954,2.1011,2.1039,2.0993,2.0997,2.1163,2.1166,2.1169,2.1186,0,0,0,0,0,0,2.0709,2.0724,2.0831,2.0836,2.0763,2.0819,2.0828,2.0853,2.0901,2.0907,2.0869,2.0867,2.0944,2.0952,2.0961,2.1036,2.0987,2.0991,2.0994,2.1165,2.1168,2.117,0,0,0,0,0,0,2.0717,2.0728,2.0833,2.0811,2.0814,2.0815,2.0823,2.0873,2.0901,2.0858,2.0858,2.0867,2.0932,2.0951,2.0958,2.1036,2.0982,2.0986,2.0989,2.0991,2.1167,2.1169,0,0,0,0,0,0,2.0722,2.0731,2.081,2.0812,2.0814,2.0869,2.086,2.0931,2.0882,2.0856,2.0878,2.0876,2.0931,2.0938,2.0956,2.1031,2.1035,2.0982,2.0985,2.0987,2.0988,0,0,0,0,0,0,0,2.0726,2.066,2.0802,2.0813,2.0815,2.088,2.0881,2.0882,2.0881,2.088,2.0878,2.0877,2.0958,2.0962,2.0967,2.1027,0,0,2.0981,2.0983,0,0,0,0,0,0,0,0,2.0656,2.0659,2.0802,2.0803,2.0804,2.088,2.0881,2.0882,2.0881,2.088,2.0878,2.0877,2.0959,2.0962,2.0966,0,0,0,0,0,0,0,0,0,0,0,0,0,0,0,2.0802,2.0803,0,2.088,2.0881,2.0882,2.0881,2.088,2.0879,2.0878,2.096,2.0963,2.0966,0,0,0,0,0,0,0,0,0,0,0,0,0,0,0,0,0,0,0,0,0,0,0,0,0,0,0,0,0,0,0,0,0,0,0,0,0,0,0,0,0,0,0,0,0,0,0,0,0,0,0,0,0,0,0,0,0,0,0,0,0,0,0,0,0,0,0,0,0]}],[{"header":{"parameterUnit":"kt","parameterCategory":2,"dx":1,"dy":1,"la1":30.253999710083008,"la2":30.299108505249023,"lo1":-89.0895004272461,"lo2":-89.04439544677734,"nx":28,"ny":28,"refTime":"2022-10-16T21:00:00:Z","depth":0,"parameterNumber":2,"parameterNumberName":"V-component_of_WINDS"},"data":[-1.3292,-1.3289,-1.3287,-1.3283,-1.3281,-1.3277,-1.3275,-1.3273,-1.327,-1.3265,-1.3262,-1.3259,-1.3255,-1.325,-1.3246,-1.3244,-1.3243,-1.3244,-1.3242,-1.3241,-1.324,-1.324,-1.324,-1.3244,-1.3244,-1.3244,-1.3244,-1.3244,-1.3291,-1.3289,-1.3286,-1.3282,-1.3279,-1.3277,-1.3274,-1.3272,-1.3268,-1.3265,-1.3262,-1.3257,-1.3253,-1.3248,-1.3244,-1.3242,-1.324,-1.3241,-1.3241,-1.324,-1.3238,-1.3239,-1.3242,-1.3242,-1.3242,-1.3242,-1.3242,-1.3242,-1.329,-1.3288,-1.3284,-1.3281,-1.3279,-1.3276,-1.3274,-1.327,-1.3267,-1.3263,-1.326,-1.3257,-1.3252,-1.3245,-1.3242,-1.3239,-1.3237,-1.3237,-1.3237,-1.3237,-1.3237,-1.3237,-1.3238,-1.3238,-1.3238,-1.3238,-1.3238,0,-1.3287,-1.3286,-1.3283,-1.328,-1.3277,-1.3274,-1.3271,-1.3269,-1.3264,-1.3262,-1.3258,-1.3255,-1.325,-1.3246,-1.3241,-1.3237,-1.3234,-1.3234,-1.3233,-1.3234,-1.3236,-1.3235,-1.3233,-1.3233,-1.3233,-1.3233,-1.3233,-1.3233,-1.3285,-1.3284,-1.3279,-1.3277,-1.3275,-1.3272,-1.327,-1.3265,-1.3263,-1.3258,-1.3257,-1.3253,-1.3249,-1.3243,-1.3238,-1.3234,-1.3232,-1.3233,-1.3231,-1.3233,-1.3232,-1.3232,-1.3231,-1.3233,-1.3233,-1.3233,-1.3233,0,-1.3284,-1.3281,-1.3278,-1.3273,-1.3271,-1.327,-1.3265,-1.3263,-1.326,-1.3257,-1.3256,-1.325,-1.3246,-1.3241,-1.3236,-1.3233,-1.323,-1.3229,-1.3232,-1.3231,-1.3231,-1.3231,-1.3232,-1.3232,-1.3229,-1.3229,-1.3229,0,-1.3281,-1.3279,-1.3274,-1.3272,-1.327,-1.3266,-1.3263,-1.326,-1.3257,-1.3254,-1.325,-1.3248,-1.3242,-1.3238,-1.3235,-1.3231,-1.323,-1.3228,-1.3227,-1.3228,-1.3228,-1.3226,-1.3226,-1.3225,-1.3225,-1.3225,-1.3225,0,-1.328,-1.3275,-1.3272,-1.327,-1.3264,-1.3263,-1.3261,-1.3256,-1.3254,-1.325,-1.3248,-1.3244,-1.3241,-1.3238,-1.3233,-1.3233,-1.3229,-1.3227,-1.3227,-1.3227,-1.3226,-1.3226,-1.3228,-1.3225,-1.3225,-1.3225,-1.3225,0,-1.3276,-1.3273,-1.327,-1.3265,-1.3264,-1.3262,-1.3258,-1.3255,-1.3251,-1.3248,-1.3245,-1.3242,-1.3238,-1.3237,-1.3232,-1.3232,-1.323,-1.3228,-1.3227,-1.3227,-1.3225,-1.3227,-1.323,-1.323,-1.3226,-1.3226,-1.3226,0,-1.3276,-1.3272,-1.3268,-1.3265,-1.3263,-1.3258,-1.3256,-1.3252,-1.3249,-1.3246,-1.3242,-1.3239,-1.3236,-1.3234,-1.3233,-1.3229,-1.3228,-1.3228,-1.3223,-1.3223,-1.3225,-1.3228,-1.3229,-1.323,-1.3226,-1.3226,-1.3226,0,-1.3275,-1.3268,-1.3268,-1.3265,-1.326,-1.3258,-1.3255,-1.3251,-1.3249,-1.3245,-1.3243,-1.3238,-1.3236,-1.3232,-1.3229,-1.3228,-1.3228,-1.3225,-1.3225,-1.3226,-1.3226,-1.3228,-1.3228,-1.3226,-1.3226,-1.3226,-1.3226,0,-1.327,-1.3268,-1.3267,-1.3262,-1.3259,-1.3257,-1.3252,-1.325,-1.3248,-1.3244,-1.324,-1.3236,-1.3231,-1.3229,-1.3226,-1.3225,-1.3224,-1.3222,-1.322,-1.3222,-1.3222,-1.3222,-1.322,-1.322,-1.322,-1.322,0,0,-1.3271,-1.3267,-1.3263,-1.326,-1.3258,-1.3253,-1.3252,-1.3249,-1.3243,-1.3241,-1.324,-1.3232,-1.3228,-1.3224,-1.3224,-1.3222,-1.3221,-1.322,-1.3221,-1.3221,-1.3221,-1.3221,-1.3221,-1.322,-1.322,-1.322,-1.322,0,-1.3268,-1.3265,-1.3263,-1.326,-1.3256,-1.3252,-1.3252,-1.3246,-1.3244,-1.324,-1.3236,-1.3233,-1.3226,-1.3223,-1.322,-1.3221,-1.3217,-1.322,-1.3222,-1.322,-1.322,-1.3221,-1.3221,-1.3221,-1.322,-1.322,-1.322,0,-1.3266,-1.3262,-1.3261,-1.3256,-1.3252,-1.325,-1.3246,-1.3243,-1.3241,-1.3236,-1.3232,-1.3229,-1.3223,-1.322,-1.3218,-1.3217,-1.3215,-1.3215,-1.3215,-1.3214,-1.3212,-1.3213,-1.3213,-1.321,-1.321,-1.321,0,0,-1.3264,-1.3262,-1.3256,-1.3255,-1.3253,-1.3248,-1.3246,-1.3243,-1.3238,-1.3236,-1.3232,-1.3227,-1.3223,-1.3221,-1.3217,-1.3214,-1.3213,-1.3214,-1.3214,-1.3214,-1.3214,-1.3212,-1.3213,-1.321,-1.321,-1.321,0,0,-1.3263,-1.3257,-1.3255,-1.3252,-1.3249,-1.3242,-1.3242,-1.3239,-1.3235,-1.3235,-1.3229,-1.3227,-1.3224,-1.3221,-1.3221,-1.3216,-1.3214,-1.3214,-1.3218,-1.3219,-1.3219,-1.322,-1.3216,0,0,0,0,0,-1.3258,-1.3258,-1.3256,-1.3255,-1.3248,-1.3244,-1.3243,-1.3238,-1.3237,-1.3236,-1.3232,-1.3229,-1.322,-1.322,-1.3218,-1.3218,-1.3209,-1.3209,-1.3209,-1.3215,-1.3215,-1.3216,0,0,0,0,0,0,-1.3258,-1.3256,-1.3256,-1.325,-1.3248,-1.3244,-1.324,-1.3239,-1.3237,-1.3236,-1.3229,-1.3228,-1.3224,-1.322,-1.3219,-1.3219,-1.3216,-1.3209,-1.3209,-1.3209,-1.3215,-1.3215,-1.3216,0,0,0,0,0,-1.3257,-1.3256,-1.3246,-1.325,-1.3248,-1.3242,-1.324,-1.3239,-1.3237,-1.3231,-1.3229,-1.3234,-1.3224,-1.3223,-1.3219,-1.3219,-1.3217,-1.3217,-1.3209,-1.3209,-1.3209,-1.3215,0,0,0,0,0,0,-1.3257,-1.3255,-1.3246,-1.3245,-1.325,-1.3242,-1.3241,-1.3239,-1.3232,-1.323,-1.3235,-1.3235,-1.3224,-1.3223,-1.3222,-1.322,-1.3218,-1.3217,-1.3217,-1.3209,-1.3209,-1.3209,0,0,0,0,0,0,-1.3255,-1.3254,-1.3245,-1.3245,-1.3245,-1.3243,-1.3242,-1.3238,-1.3232,-1.3236,-1.3236,-1.3235,-1.3225,-1.3223,-1.3223,-1.3217,-1.3218,-1.3218,-1.3218,-1.3217,-1.3209,-1.3209,0,0,0,0,0,0,-1.3255,-1.3254,-1.3245,-1.3245,-1.3244,-1.3237,-1.3239,-1.3232,-1.3232,-1.3237,-1.3232,-1.3232,-1.3226,-1.3225,-1.3223,-1.3217,-1.3217,-1.3218,-1.3218,-1.3218,-1.3218,0,0,0,0,0,0,0,-1.3255,-1.3262,-1.3249,-1.3245,-1.3244,-1.3239,-1.3239,-1.3239,-1.3232,-1.3232,-1.3232,-1.3232,-1.322,-1.322,-1.322,-1.3218,0,0,-1.3218,-1.3218,0,0,0,0,0,0,0,0,-1.3262,-1.3262,-1.3249,-1.3249,-1.3249,-1.3239,-1.3239,-1.3239,-1.3232,-1.3232,-1.3232,-1.3232,-1.322,-1.322,-1.322,0,0,0,0,0,0,0,0,0,0,0,0,0,0,0,-1.3249,-1.3249,0,-1.3239,-1.3239,-1.3239,-1.3232,-1.3232,-1.3232,-1.3232,-1.322,-1.322,-1.322,0,0,0,0,0,0,0,0,0,0,0,0,0,0,0,0,0,0,0,0,0,0,0,0,0,0,0,0,0,0,0,0,0,0,0,0,0,0,0,0,0,0,0,0,0,0,0,0,0,0,0,0,0,0,0,0,0,0,0,0,0,0,0,0,0,0,0,0,0]}]]]